Wind_Speed
25 25 23 22 22 21 20 19 18 17 16 15 14 12 11 11 11 11 9 8 9 9 9 9 10 11 13 14 15 16 17 19 20 22 23 25 26 26 27 27 27 28 28 29 30 30 31 31 32 32 29 26 22 16 9 4 6 11 13 14 14 12 11 10 8 7 6 8 11 12 14 14 13 12 11 11 12 12 12 12 13 15 16 17 18 18 19 19
29 28 27 26 25 24 23 22 21 20 19 18 17 15 14 13 13 13 12 10 9 10 10 9 9 10 11 12 13 14 15 16 18 19 21 22 24 25 26 26 26 26 27 28 28 30 31 31 31 32 32 29 27 22 15 9 5 8 11 12 12 11 10 9 8 7 7 9 10 12 13 12 10 8 6 6 5 5 6 7 7 9 11 12 13 14 14 14
32 31 30 29 28 27 26 25 24 23 21 20 20 18 17 16 15 15 14 13 11 11 11 10 10 10 10 11 12 13 14 15 16 17 18 20 22 23 24 25 25 25 26 27 27 28 30 31 31 32 33 32 30 27 22 15 9 6 9 10 10 10 10 9 7 7 7 9 10 11 11 11 9 7 6 5 4 3 2 2 1 2 3 5 7 8 7 7
35 34 33 32 31 30 29 28 27 26 25 23 22 21 20 19 18 17 16 15 14 13 12 11 11 11 11 11 11 12 13 13 14 15 16 17 19 21 22 23 24 24 24 25 26 27 28 30 31 31 33 33 31 30 27 21 14 9 8 9 9 9 9 9 7 6 7 9 11 11 11 11 10 8 7 6 6 4 4 3 3 2 2 2 3 3 3 3
37 37 36 35 34 33 32 31 30 29 28 27 26 24 23 22 21 20 19 18 16 15 15 14 12 12 11 11 11 11 12 13 13 13 14 15 16 18 20 21 22 23 23 23 24 25 26 28 29 30 31 32 30 29 29 25 17 12 9 8 7 7 7 8 6 5 6 8 9 10 11 11 10 8 7 6 5 3 3 3 3 2 1 2 2 3 2 2
39 38 38 38 37 36 35 34 33 32 31 30 29 28 26 25 24 23 22 21 19 18 17 16 15 13 12 12 12 12 12 12 12 12 13 13 14 15 17 19 20 21 22 22 22 23 24 25 27 28 29 30 30 29 29 26 21 17 13 9 7 6 7 7 4 5 7 8 8 9 9 10 9 8 7 6 4 3 3 2 1 2 2 2 3 3 3 2
39 39 39 39 39 38 38 37 36 35 34 33 32 30 29 28 27 26 25 24 23 21 20 19 18 16 14 13 13 13 13 12 12 12 12 12 12 13 14 16 18 19 20 21 21 21 22 23 24 26 27 29 29 29 29 27 25 23 17 10 6 5 7 6 3 5 7 8 8 9 9 11 10 8 7 5 4 3 2 1 2 3 3 3 3 3 3 3
40 40 39 39 39 39 39 39 38 37 37 36 35 34 32 31 30 29 28 27 26 24 23 22 21 19 16 14 14 14 14 14 12 13 12 12 12 12 12 13 15 17 18 20 20 20 20 21 22 24 25 27 27 28 28 28 29 28 20 12 6 6 7 6 4 5 6 7 8 9 10 11 9 7 5 4 3 3 2 0 2 3 3 3 3 4 4 4
42 41 41 40 40 39 39 38 38 38 38 37 37 36 34 33 32 31 30 30 29 28 26 24 23 22 20 17 15 16 16 15 14 14 14 12 12 12 11 11 12 14 16 17 19 19 19 20 20 21 23 25 25 26 27 29 32 30 22 14 8 5 6 7 6 5 6 7 8 10 11 11 8 6 6 5 4 3 2 1 0 1 2 3 3 4 5 5
46 45 44 43 42 41 40 39 39 38 38 37 37 36 35 35 34 34 33 32 32 31 30 28 26 25 23 20 18 18 18 17 16 15 15 14 13 12 12 11 10 12 13 15 16 17 18 18 19 19 20 22 22 22 24 29 32 29 22 16 11 6 5 7 7 6 6 8 9 10 10 10 8 7 6 5 4 3 2 1 2 3 3 3 3 3 4 4
50 49 48 46 45 44 43 42 41 40 39 38 37 36 35 35 34 34 34 34 34 34 33 31 29 28 27 24 21 20 20 19 18 17 16 15 14 12 13 13 10 10 11 12 14 15 16 17 17 18 18 19 20 20 22 26 29 27 22 17 14 11 6 6 7 6 6 8 9 9 8 8 8 7 6 4 4 4 3 3 4 5 5 4 3 2 1 2
54 53 52 51 49 48 46 45 44 43 41 40 38 37 36 35 34 34 34 35 35 35 35 35 33 31 30 27 24 24 23 21 21 20 18 17 15 14 13 14 12 10 10 10 11 13 14 15 16 16 16 17 18 19 19 22 26 25 22 18 16 14 11 7 7 7 6 7 8 8 8 8 8 7 7 6 5 6 6 7 7 7 7 7 6 6 6 7
58 57 56 55 54 52 51 49 48 47 45 43 41 39 38 36 35 34 34 34 35 36 37 38 37 35 33 30 28 28 26 24 24 22 20 19 18 15 15 15 15 11 10 9 9 10 11 13 14 14 15 15 15 17 16 18 22 22 20 19 18 16 14 11 8 7 7 7 7 8 9 9 8 8 8 8 7 8 9 8 7 7 7 7 8 8 7 8
62 61 60 59 58 57 56 54 52 51 49 47 45 43 41 39 37 36 35 35 34 36 38 40 40 38 36 33 32 32 30 27 26 24 23 22 20 17 16 17 17 14 12 10 9 9 9 10 11 12 13 13 13 14 14 15 19 20 17 18 19 18 15 13 11 9 8 8 8 9 10 10 9 7 8 8 8 8 8 7 6 6 6 6 7 8 8 9
65 65 64 63 62 61 60 59 58 56 53 51 49 47 45 43 40 39 38 37 36 36 39 41 41 41 39 35 34 35 33 30 27 26 26 26 23 20 19 19 19 16 14 13 11 10 9 8 9 10 10 12 12 12 12 13 15 17 15 15 16 17 17 15 14 13 12 11 10 10 10 10 8 6 6 8 8 8 7 6 6 6 7 7 8 8 9 10
68 68 67 66 65 64 64 63 62 60 58 55 53 50 49 47 45 43 42 40 40 39 40 41 41 42 41 37 36 37 34 31 31 30 30 29 26 22 21 21 21 19 16 15 14 12 10 8 7 8 8 9 10 10 10 10 12 13 13 12 13 14 15 16 16 15 14 12 11 10 9 9 8 7 7 9 10 11 11 11 10 9 9 9 9 11 11 12
71 70 70 69 69 68 67 67 66 64 62 59 57 55 53 51 50 48 47 45 45 43 43 42 41 43 43 39 38 37 35 34 34 33 33 32 29 25 25 24 22 21 19 17 16 15 13 10 8 7 7 7 8 9 9 8 9 10 10 10 10 10 11 13 14 14 14 13 12 11 11 11 10 10 10 11 12 13 13 13 13 12 11 10 10 11 11 11
74 74 73 72 72 71 70 70 69 68 65 62 61 59 57 56 55 52 51 51 49 46 45 43 43 44 43 40 39 39 38 36 36 36 36 35 32 29 28 26 24 23 22 20 19 17 16 14 11 9 7 5 6 7 8 8 7 8 8 8 8 8 8 10 10 9 10 12 11 11 12 12 12 13 12 11 12 12 11 11 11 11 11 11 11 10 9 9
77 77 76 76 75 74 73 73 73 71 69 66 64 63 61 61 59 56 56 56 52 50 48 46 46 46 44 43 42 40 39 37 38 39 39 37 34 32 31 29 26 25 25 24 21 19 19 17 15 12 10 7 5 5 6 7 7 6 6 6 6 7 7 7 7 6 6 8 9 9 9 10 11 11 10 9 9 9 8 8 9 9 9 10 10 9 8 7
79 79 79 78 78 77 76 76 76 75 72 69 67 66 65 64 63 60 60 59 56 54 53 51 49 48 47 46 44 41 41 40 40 41 40 38 35 34 33 31 29 28 29 28 24 21 20 21 19 15 13 10 7 5 5 5 6 6 5 5 5 6 6 6 5 5 4 4 6 7 7 8 8 9 8 7 7 8 7 7 8 8 8 9 9 8 7 7
81 81 81 80 80 79 79 79 79 78 76 73 71 69 69 67 65 64 64 63 60 57 57 55 53 52 50 49 46 44 44 43 42 42 41 39 37 35 35 34 32 32 34 32 27 23 24 25 22 18 16 14 10 7 6 5 5 5 5 5 5 5 6 7 5 5 4 3 3 4 6 7 7 7 7 7 7 7 7 7 7 7 7 8 8 7 6 6
83 83 83 83 82 81 80 80 81 80 79 77 75 73 72 70 68 67 67 67 63 60 60 59 57 57 54 51 49 47 47 47 46 44 42 41 38 37 37 36 35 36 37 33 29 26 29 30 26 21 19 18 15 11 9 8 6 5 5 6 6 4 4 6 7 5 4 4 3 2 3 5 5 3 3 4 5 6 6 6 5 5 5 6 6 6 6 5
81 83 84 85 84 83 82 82 82 82 81 80 78 77 75 73 72 70 69 70 68 63 63 63 60 60 58 54 53 51 50 52 51 48 45 43 41 40 39 37 38 39 37 35 32 31 33 33 27 23 21 21 19 16 13 12 10 8 7 6 7 6 4 4 6 7 5 4 3 3 1 1 0 2 2 1 1 2 3 4 3 3 4 4 4 5 5 4
76 79 82 84 85 85 84 84 84 83 83 82 81 79 77 75 75 74 72 72 72 68 66 65 64 64 63 60 57 54 54 55 53 51 48 46 46 43 40 39 40 39 37 37 36 35 37 35 28 25 24 24 23 20 18 16 14 12 11 9 8 8 6 5 5 7 7 6 5 5 4 3 3 4 4 3 3 3 2 2 2 2 3 3 4 4 4 4
68 72 76 80 82 84 85 85 85 85 85 84 83 81 79 77 76 76 75 74 76 74 68 67 68 69 67 62 58 58 59 58 56 55 52 50 50 47 44 43 41 39 39 40 38 38 40 36 30 29 28 27 25 23 22 20 18 16 15 13 12 10 8 7 7 8 8 8 7 7 7 6 5 5 5 4 4 5 5 4 3 3 4 5 5 5 5 6
61 64 69 73 77 80 82 83 85 86 86 86 85 83 81 80 78 77 77 75 78 79 73 71 73 73 69 64 62 63 63 61 60 59 55 54 53 50 48 45 42 41 42 42 39 40 41 37 33 32 31 30 29 26 26 24 22 21 19 17 15 14 12 9 9 9 10 9 9 9 9 9 8 8 8 7 7 6 7 7 7 6 6 7 7 8 8 8
55 58 62 66 70 75 77 80 82 84 86 86 86 85 84 82 80 78 78 76 78 81 78 75 76 76 73 68 67 67 64 64 65 62 59 58 56 54 52 48 46 45 44 42 39 40 43 39 35 35 34 34 32 31 31 28 26 26 22 19 18 17 15 13 11 11 11 11 11 11 10 10 10 11 11 10 9 9 8 8 9 9 9 9 9 9 9 10
52 54 57 61 64 68 72 75 77 79 83 85 86 86 85 84 82 80 79 77 79 82 81 78 78 79 77 72 70 69 68 69 68 65 64 63 59 57 54 51 50 50 48 44 40 43 46 41 38 39 37 36 36 36 34 30 30 29 25 22 21 20 18 17 15 13 12 13 13 12 11 12 12 13 14 12 11 12 10 8 8 10 11 11 11 10 10 11
50 51 53 57 60 63 68 70 71 74 79 83 83 84 85 85 84 82 80 78 81 84 83 81 80 80 80 76 74 73 72 72 70 69 69 66 62 60 57 55 55 54 52 46 43 47 48 43 41 41 38 38 41 40 35 32 34 32 26 24 24 22 21 19 18 16 13 14 16 14 12 13 13 15 17 15 15 16 14 11 10 10 12 13 13 13 12 13
50 50 51 53 56 59 63 66 65 68 74 78 80 82 83 84 84 83 81 81 84 85 84 84 83 81 80 78 76 76 75 74 73 72 71 69 66 63 61 59 58 57 54 48 47 49 48 45 43 40 37 40 44 42 35 34 38 34 28 27 27 25 24 22 20 19 16 17 20 18 16 15 15 16 17 16 18 19 18 17 15 13 14 15 14 14 14 15
51 50 50 51 52 55 59 61 60 63 69 73 76 78 80 82 83 82 83 85 86 86 87 87 85 82 81 79 78 78 78 77 76 74 73 71 69 67 64 62 61 59 55 50 48 50 50 46 43 40 40 43 46 42 36 37 40 36 32 32 30 29 28 25 23 22 20 22 25 22 19 17 18 19 17 17 18 19 20 21 20 19 19 19 17 16 16 17
51 49 49 50 50 52 54 55 56 60 64 67 71 75 77 78 78 80 85 88 88 88 89 88 86 84 81 78 78 79 80 79 78 76 75 74 72 69 67 65 63 61 57 51 50 52 51 47 44 43 43 45 46 43 39 39 42 39 37 36 34 32 31 29 27 26 25 27 29 25 21 19 21 21 20 20 18 18 20 22 23 24 24 23 21 20 21 20
51 52 52 52 52 52 50 48 51 56 60 63 66 70 73 73 73 78 85 88 90 91 90 88 87 85 82 79 79 80 80 80 79 78 77 77 75 72 71 69 67 64 61 57 56 56 54 51 49 46 44 45 45 44 42 42 44 44 42 41 39 37 34 32 31 31 30 31 31 28 22 20 23 25 24 23 21 20 21 23 24 26 28 28 26 26 26 25
53 54 55 56 56 54 49 45 47 51 56 59 61 64 68 68 71 77 82 87 91 92 91 89 87 85 83 82 82 82 81 81 80 80 79 78 76 74 73 72 70 68 65 63 61 60 58 55 51 48 46 46 46 46 46 47 48 49 48 45 42 39 37 35 34 34 34 34 33 29 24 23 26 27 26 25 25 24 24 24 25 27 29 31 31 30 31 30
56 56 57 58 58 57 53 48 46 48 52 55 58 59 60 62 70 77 81 85 89 90 90 89 87 86 85 85 84 84 84 83 82 81 80 79 77 74 74 73 72 70 68 65 62 61 60 56 54 53 51 50 50 50 52 52 52 52 51 47 42 40 40 38 36 37 37 35 34 31 28 27 28 28 28 28 28 28 27 27 28 30 32 33 34 34 34 33
58 58 58 59 59 59 58 55 50 49 51 52 52 53 54 58 68 76 80 83 85 87 89 89 88 87 86 87 86 86 86 86 84 83 80 79 77 76 75 74 73 72 70 67 64 63 60 57 58 58 55 53 53 54 56 55 52 54 53 48 44 44 44 41 39 38 37 35 34 34 31 30 31 30 30 30 30 29 29 29 30 31 33 35 36 37 37 36
60 60 59 58 59 60 60 60 56 51 50 49 47 48 52 58 66 74 79 81 82 83 86 88 89 88 87 88 87 87 88 87 86 84 81 80 78 77 75 75 74 73 72 70 67 66 63 61 62 62 58 56 57 59 60 56 54 55 53 49 48 48 45 42 40 38 37 36 35 35 34 33 34 34 34 34 33 32 31 31 31 32 34 36 38 39 39 39
60 60 59 58 59 60 61 62 60 55 50 47 45 47 51 58 65 72 77 79 80 81 82 85 88 89 89 88 88 89 89 88 87 85 83 82 80 77 76 75 75 74 73 72 71 69 67 65 66 65 62 61 62 64 62 57 55 56 54 53 53 50 45 44 43 40 39 39 38 37 35 35 36 37 37 36 36 35 34 33 33 33 36 39 40 40 40 40
60 60 59 59 59 60 62 63 63 59 52 47 48 50 53 59 65 69 72 76 78 78 79 82 86 89 90 89 89 90 89 88 88 86 85 83 81 80 79 77 76 75 74 74 72 71 70 68 68 67 65 65 67 66 61 57 56 57 58 58 55 51 48 47 47 44 42 41 40 38 37 36 38 39 38 39 39 39 37 36 36 37 40 42 42 42 42 41
59 60 60 60 60 60 63 64 63 62 57 52 52 54 55 59 64 66 68 72 75 77 78 81 84 87 89 91 91 90 89 89 89 88 86 84 82 82 81 79 78 77 76 76 74 73 73 71 70 70 69 69 68 64 59 58 60 60 61 60 57 54 53 51 50 48 44 42 42 42 40 40 40 40 40 41 41 40 39 39 39 41 42 44 45 44 43 42
60 60 61 61 61 61 64 64 64 64 61 57 55 56 57 58 61 64 66 68 73 76 78 80 82 84 87 91 92 92 90 90 90 89 87 85 83 82 82 81 80 79 79 77 75 75 74 72 73 73 72 70 66 62 61 62 63 63 64 64 61 59 57 54 52 49 47 47 46 44 42 40 41 40 41 42 42 42 41 41 42 44 44 45 45 45 44 43
61 61 62 63 63 63 65 65 65 65 63 61 59 58 58 58 60 63 64 65 69 74 78 79 80 82 85 89 93 94 93 93 93 91 88 87 85 83 83 82 82 82 81 78 76 76 75 75 76 76 74 70 67 65 65 66 66 67 68 66 63 60 57 55 53 51 51 51 48 45 42 40 42 43 43 44 44 43 43 43 45 46 46 46 46 45 45 45
65 65 65 65 66 66 67 66 66 65 65 65 62 59 58 59 60 62 62 62 66 72 76 78 78 80 84 88 93 96 97 95 93 91 89 88 86 85 85 84 83 83 81 78 77 78 79 78 77 77 75 71 71 70 69 68 69 69 67 64 62 60 57 56 56 56 56 54 50 47 43 41 43 46 46 46 45 44 44 45 46 47 47 46 46 46 47 47
69 69 68 68 69 70 69 69 68 66 66 67 64 60 59 59 61 62 62 61 63 69 75 77 78 80 83 86 92 97 98 95 92 90 89 88 86 86 86 86 85 83 80 78 78 80 80 78 77 78 78 75 74 73 69 68 69 68 65 64 62 61 60 60 60 59 58 55 51 50 46 44 47 49 48 47 46 45 46 46 47 47 47 46 45 46 48 49
73 74 72 71 72 73 72 71 69 67 67 67 65 63 61 61 63 64 63 61 62 67 72 76 78 80 82 85 90 94 95 93 92 91 90 87 86 86 87 88 87 85 80 78 80 82 83 80 78 80 80 76 72 70 66 66 69 69 67 65 64 64 63 63 63 62 59 56 54 53 51 49 49 49 48 48 47 47 47 47 46 46 46 46 46 46 49 51
78 79 78 75 75 76 75 73 70 68 67 67 66 65 63 62 64 64 63 62 62 66 70 75 78 80 81 83 87 90 92 93 94 94 91 88 87 87 87 87 87 85 82 81 82 84 84 81 80 81 79 75 71 69 68 70 73 72 69 68 67 67 67 67 67 65 61 60 59 58 55 53 51 49 49 49 49 49 49 47 47 48 48 47 47 47 50 52
82 83 82 79 77 77 77 74 71 69 68 67 66 66 65 64 65 65 63 61 62 64 69 74 78 80 80 81 84 88 90 93 94 94 91 90 89 88 87 86 86 86 84 84 84 85 84 81 80 79 78 74 72 72 74 75 77 75 72 72 71 71 71 70 69 66 64 64 63 60 58 55 52 51 51 51 51 51 49 47 48 49 49 49 48 48 51 54
84 84 85 82 78 77 77 76 73 71 69 68 67 67 67 67 66 65 62 60 62 64 67 71 76 78 78 80 84 87 88 90 93 94 93 91 90 88 87 86 86 86 86 86 86 85 83 79 78 77 76 74 74 75 76 77 78 77 75 74 74 74 73 72 70 69 67 66 65 63 60 55 52 52 52 52 52 51 50 49 50 51 51 50 50 51 53 56
85 86 87 85 81 78 78 77 74 73 71 69 68 68 69 68 66 65 63 61 63 65 65 68 73 75 75 78 82 84 84 86 92 94 93 93 90 88 87 88 87 86 86 86 86 85 82 79 77 76 75 74 75 76 78 78 78 78 77 76 76 76 74 73 72 71 70 68 65 64 61 55 53 53 53 53 53 52 51 51 51 52 53 53 53 54 56 58
87 87 88 87 84 81 80 78 76 75 74 72 70 70 70 69 67 66 64 62 63 64 64 66 70 73 74 75 78 80 82 85 89 91 92 92 91 88 88 88 86 85 86 86 86 85 82 79 77 76 74 73 75 76 78 78 78 78 78 77 77 77 76 74 73 72 72 69 66 65 62 56 55 57 57 56 55 54 54 54 54 55 55 55 57 58 59 60
89 89 89 88 87 85 82 80 78 77 76 74 72 71 70 70 69 67 65 64 63 63 63 64 67 71 73 74 74 77 80 82 85 88 90 92 92 90 89 88 86 85 85 85 86 84 81 79 78 77 75 73 73 74 75 76 78 79 79 79 78 77 76 75 74 73 72 70 67 66 63 60 61 62 60 59 59 58 57 57 58 58 57 58 59 61 62 63
90 90 90 90 89 88 85 82 80 79 78 76 74 73 72 72 70 68 68 67 64 61 61 62 65 69 72 72 73 75 77 78 80 83 87 91 93 92 90 88 86 85 84 85 85 84 81 79 78 77 75 73 73 74 74 76 78 79 77 77 77 75 75 74 74 72 71 70 67 66 64 63 63 63 61 61 61 61 60 60 60 60 60 61 62 63 64 65
Wind_Direction
240 240 241 242 245 246 248 250 251 252 255 258 261 264 269 277 284 290 296 306 315 324 337 350 357 3 7 10 12 14 17 19 22 24 25 24 23 24 25 27 29 31 33 32 32 31 31 32 33 34 33 33 36 40 49 99 184 201 206 214 205 197 200 187 183 189 198 212 215 220 226 227 224 223 226 229 232 235 238 242 247 249 251 252 253 254 254 254
240 240 241 241 243 245 247 249 250 252 254 256 257 259 262 267 274 281 286 291 300 308 317 329 339 349 355 1 5 7 10 14 18 20 23 23 21 21 23 24 25 27 30 31 31 30 30 29 30 32 32 32 35 41 46 61 114 176 191 204 203 199 193 172 165 174 190 201 198 201 206 205 195 187 187 191 200 212 222 230 239 247 250 251 252 253 253 254
240 240 240 241 241 243 245 247 248 249 251 254 257 257 258 261 265 270 276 281 287 294 301 310 320 330 340 348 354 359 1 5 10 14 19 21 20 19 20 21 22 23 26 29 29 29 30 29 29 30 31 30 31 37 44 52 68 125 167 187 198 199 185 160 159 171 188 202 193 185 181 169 150 129 120 116 111 105 121 151 176 245 263 263 260 256 253 254
244 243 242 241 241 241 243 244 246 247 247 249 252 255 258 259 261 263 267 272 277 282 288 294 303 312 322 331 341 347 351 355 360 6 12 16 18 17 17 19 20 21 22 26 28 28 29 29 29 29 31 31 29 30 38 47 57 83 129 166 184 194 177 153 151 162 181 202 193 175 162 147 128 113 103 94 82 69 61 59 52 36 350 300 275 263 251 245
249 248 246 245 243 242 242 242 244 245 246 246 247 249 252 256 258 260 262 264 268 273 278 282 288 296 305 314 324 332 339 343 348 356 2 8 14 15 15 16 17 19 19 22 25 27 29 30 30 29 31 32 30 29 35 42 51 68 97 134 160 178 164 140 142 162 184 196 184 169 156 141 127 118 111 100 89 78 63 46 27 17 327 285 276 269 260 248
252 252 251 250 248 247 245 244 243 244 245 246 246 247 248 250 253 257 259 260 261 265 269 273 277 282 291 300 308 316 324 329 335 343 349 356 5 10 12 13 14 16 18 19 22 25 27 30 31 29 29 32 31 29 34 40 46 57 70 94 128 153 135 122 140 177 191 190 172 159 149 133 120 115 112 109 105 99 88 67 3 330 303 287 287 283 280 275
253 253 253 253 252 251 250 249 247 246 245 245 246 246 247 248 250 252 255 257 258 260 263 266 269 272 278 286 294 302 308 314 322 329 333 342 352 1 6 10 11 13 15 16 18 22 25 28 31 31 29 31 32 30 32 38 44 51 54 63 94 127 120 119 165 189 188 182 160 150 143 129 116 104 101 109 119 110 94 82 293 298 291 281 282 286 286 282
253 253 253 253 253 253 252 252 251 250 249 247 247 247 246 246 247 249 252 255 256 256 258 261 264 265 268 274 282 289 294 300 308 315 319 326 337 347 356 4 7 8 11 14 14 17 21 25 29 32 31 30 31 31 31 34 41 48 50 50 73 116 121 129 174 183 172 161 147 143 140 130 118 104 100 107 125 125 108 185 269 283 288 282 278 277 280 280
254 253 253 253 253 253 253 252 252 252 251 251 250 249 248 247 247 247 249 251 254 255 255 256 259 261 262 264 271 277 283 289 297 303 306 313 322 331 340 352 0 2 6 10 12 13 17 21 25 31 34 31 30 31 32 35 40 44 48 49 63 106 130 146 165 166 154 145 135 132 133 131 125 114 103 98 115 130 131 138 324 327 318 316 302 287 281 281
255 254 253 253 253 253 253 252 252 252 252 252 251 251 251 250 249 248 248 249 251 253 254 254 256 258 259 259 263 268 274 280 286 291 294 300 309 317 324 333 347 355 359 5 8 9 12 17 20 25 33 34 30 30 35 39 41 42 45 47 53 79 128 152 157 157 151 140 129 129 134 136 131 114 98 95 112 126 134 126 71 51 24 357 331 304 290 283
256 255 254 253 252 252 252 252 252 252 251 251 251 252 252 252 251 251 250 249 250 252 254 254 253 255 257 257 257 262 266 272 276 278 283 290 296 304 311 315 326 341 347 356 3 5 8 12 16 19 27 36 31 27 35 43 46 44 43 44 49 62 95 143 156 159 152 140 135 136 137 138 131 112 97 107 128 129 131 122 100 88 78 61 47 48 71 79
255 255 255 254 253 252 252 251 251 251 251 251 251 251 251 251 252 252 252 252 251 252 253 255 254 253 254 255 255 257 259 263 266 270 275 281 286 292 299 302 308 321 332 343 354 359 3 7 12 14 19 30 33 27 31 45 52 48 44 45 50 58 71 105 149 168 162 154 148 143 143 142 132 112 100 110 131 134 127 118 108 101 96 85 76 78 84 83
255 255 254 254 253 253 252 252 251 250 250 250 251 251 251 251 251 251 252 253 253 253 253 255 255 254 253 253 254 254 254 256 260 265 271 274 278 283 289 291 295 304 314 324 339 348 355 1 7 12 13 20 30 31 27 42 56 54 47 47 52 59 67 83 116 154 168 169 167 160 158 147 126 109 103 103 109 116 117 113 108 104 98 82 70 72 81 75
255 255 254 254 253 253 252 252 251 251 250 250 250 251 251 251 251 251 251 252 253 254 254 254 255 255 254 252 252 253 252 252 256 262 266 268 270 274 279 283 286 292 299 307 319 330 341 352 359 5 11 13 20 28 27 36 54 56 50 49 52 57 65 76 95 119 138 154 164 164 155 139 122 110 107 103 101 107 112 113 112 107 95 78 66 74 83 75
255 254 254 254 253 253 252 252 251 251 250 250 249 249 250 251 251 251 251 251 251 252 253 253 254 255 255 254 253 253 252 251 254 258 260 261 263 266 270 275 279 283 289 295 301 310 319 335 346 353 5 11 11 17 24 33 49 54 50 50 54 56 59 66 78 94 108 119 128 133 131 125 120 115 108 106 103 102 104 106 108 101 92 84 81 90 94 85
255 255 254 254 253 253 252 252 251 250 250 250 249 248 249 249 250 250 250 250 249 249 250 252 253 254 255 255 254 254 254 253 253 253 254 257 258 260 264 268 272 277 281 286 289 294 300 310 325 335 350 6 6 3 12 27 44 52 46 45 53 58 59 61 64 71 82 92 100 104 107 111 117 116 109 103 98 97 97 96 95 92 90 88 92 101 103 95
254 254 254 254 253 253 252 252 251 251 250 249 249 248 248 248 248 248 249 249 248 247 247 249 250 251 252 253 255 256 255 253 252 252 253 255 256 256 258 261 266 272 275 277 280 284 288 291 299 310 327 350 358 354 360 11 31 47 43 36 43 54 61 63 62 63 70 79 88 97 101 104 106 103 98 93 91 92 92 91 89 85 83 81 88 101 104 98
253 253 253 253 253 253 252 252 252 251 249 249 248 248 247 247 246 246 247 248 248 247 247 247 249 250 251 251 252 253 253 251 252 253 252 253 253 252 253 256 261 266 269 270 273 277 279 280 282 288 297 316 337 345 352 356 7 31 36 29 31 41 55 66 70 71 77 81 88 97 101 102 101 96 91 86 83 82 80 80 82 80 77 77 81 90 96 94
253 252 252 252 252 252 252 252 252 251 250 248 248 248 247 246 246 245 245 246 247 248 248 248 248 249 251 251 250 251 253 252 250 251 251 250 250 250 251 252 255 259 263 264 266 269 272 274 273 275 278 283 299 321 341 345 348 5 17 17 18 22 33 55 65 71 84 92 94 95 96 99 98 95 92 88 82 79 72 67 69 73 76 79 80 81 82 77
253 252 252 252 251 251 250 251 251 251 250 248 248 247 247 246 246 245 245 245 245 246 247 248 247 248 249 250 250 251 252 252 250 250 251 251 250 250 251 251 252 255 258 258 259 263 266 267 266 267 269 268 270 285 307 321 330 341 347 349 360 7 5 17 40 48 59 84 94 94 95 95 94 95 95 91 86 83 76 70 66 66 70 76 79 79 75 70
253 253 252 251 251 250 250 250 250 250 250 249 247 247 247 246 246 245 245 245 244 244 246 246 247 247 247 248 249 250 251 252 252 251 252 252 250 249 250 249 249 251 253 253 255 258 260 261 261 263 265 265 261 262 270 278 295 313 317 317 328 352 350 346 358 22 32 36 58 82 89 90 91 94 97 93 88 85 84 80 72 64 62 65 71 71 71 71
253 252 252 252 251 250 250 250 250 249 249 248 247 246 246 246 246 245 246 245 243 242 243 245 245 246 246 246 247 248 250 252 251 251 251 252 251 248 247 247 246 247 249 251 252 253 254 256 257 258 261 265 262 257 258 256 257 272 287 296 300 312 332 329 328 339 5 7 4 29 78 90 84 76 86 97 96 93 93 92 82 67 56 56 56 57 61 64
253 252 251 251 251 250 249 249 249 249 249 248 247 246 245 245 245 245 245 246 244 241 242 243 243 245 245 244 245 245 247 249 250 250 250 251 250 248 247 247 246 246 248 250 249 247 251 254 255 256 260 263 261 257 256 253 247 248 255 267 277 278 282 299 306 309 318 329 329 327 331 131 226 306 316 347 57 81 91 90 86 65 45 40 36 36 43 47
254 253 251 251 250 250 249 248 249 249 249 248 247 246 244 243 244 245 245 246 246 242 241 242 242 243 243 242 243 244 245 246 248 248 248 249 250 248 247 246 245 246 247 248 247 246 249 253 254 255 256 258 258 257 255 253 248 244 242 242 252 259 258 262 276 288 293 294 292 292 291 277 264 275 288 302 319 325 345 28 42 24 2 355 353 354 360 5
254 253 252 251 250 249 248 248 248 248 248 248 247 246 245 243 242 243 243 245 246 244 241 241 242 242 242 242 243 245 245 246 246 247 246 247 248 247 246 245 245 246 246 246 246 245 249 253 252 250 252 254 255 256 255 254 251 248 241 234 236 242 244 249 257 265 273 279 280 278 279 277 272 274 273 270 284 300 309 317 324 326 324 322 323 327 331 335
255 254 253 252 250 249 248 247 247 247 246 246 246 246 245 243 241 241 241 242 245 245 242 240 242 242 241 240 241 242 244 245 246 246 245 245 246 246 245 245 245 245 245 245 245 245 248 251 249 247 250 252 253 254 254 252 251 249 244 236 234 235 233 234 243 256 263 268 273 275 278 278 276 275 273 270 269 278 291 299 302 304 305 306 310 315 319 324
255 254 253 252 251 250 248 246 246 246 246 245 245 245 244 243 242 240 240 240 242 245 243 240 241 242 240 239 240 241 242 244 245 245 246 245 244 244 245 244 244 243 244 244 244 245 248 249 248 245 246 249 250 249 249 249 249 249 245 241 238 236 232 229 231 244 257 262 265 271 278 283 284 283 279 277 278 276 275 282 291 296 299 300 302 308 315 319
259 255 254 253 252 251 249 246 245 245 245 245 244 244 244 243 242 240 239 238 239 242 242 240 240 241 240 238 239 240 241 242 243 244 245 244 243 243 244 243 243 242 243 242 241 242 244 245 244 242 243 246 247 247 247 248 250 249 245 243 244 241 238 234 230 233 248 260 263 266 275 280 286 288 286 286 287 282 277 279 288 295 300 303 305 309 313 316
265 259 255 253 252 252 250 248 245 244 244 244 243 243 243 242 241 240 238 237 237 239 240 239 239 240 240 239 238 239 240 241 242 243 244 245 244 244 244 243 242 242 243 242 239 240 244 245 244 244 242 244 246 248 248 249 250 250 246 245 247 246 244 241 238 235 240 255 260 258 262 267 273 279 283 288 288 286 286 288 288 292 296 299 302 307 309 310
270 265 260 256 253 252 252 249 246 244 244 244 243 242 242 241 240 239 238 236 236 237 238 238 237 238 239 239 238 238 239 240 241 242 243 244 244 244 244 243 243 244 244 243 241 242 245 246 247 247 244 243 246 250 250 249 251 252 250 249 248 247 246 244 245 243 241 250 255 250 247 253 260 265 272 281 285 288 291 290 287 287 287 288 292 298 301 303
274 270 266 261 257 253 252 251 248 245 243 243 243 242 241 241 240 239 237 235 235 235 236 236 237 236 237 237 238 238 238 238 239 240 241 242 243 243 244 244 245 246 246 245 245 246 247 248 250 249 245 243 246 250 250 249 252 254 252 251 249 247 245 244 245 244 243 247 248 245 242 248 256 259 264 272 279 287 292 292 292 290 286 285 287 289 290 293
276 273 271 268 264 258 252 251 251 248 244 242 242 241 240 239 239 238 237 235 234 234 234 235 235 235 235 236 237 238 238 238 238 239 240 240 241 241 242 243 244 245 245 244 244 246 247 248 248 245 243 243 245 248 250 249 251 253 251 250 249 247 245 242 242 241 241 245 246 243 241 248 256 257 258 261 267 277 283 287 291 293 291 288 287 287 285 285
275 275 274 273 271 265 257 252 253 252 247 242 241 240 239 238 237 237 236 235 234 234 233 233 233 234 233 233 234 235 237 238 238 238 239 239 239 239 240 240 241 242 241 240 239 241 242 242 243 243 243 245 246 248 248 247 248 249 248 247 246 244 243 240 240 239 239 243 246 245 242 247 256 256 256 259 262 265 271 277 283 287 289 289 289 289 287 285
271 272 273 273 274 271 265 258 255 255 251 244 240 239 239 236 234 235 236 235 234 234 233 233 232 232 232 232 232 233 234 236 237 237 238 238 239 238 239 240 241 241 241 240 239 240 240 241 241 241 240 242 243 244 244 243 244 244 245 245 245 245 245 242 240 240 240 241 244 245 242 246 254 257 258 260 261 262 265 271 276 279 281 284 286 287 287 287
268 269 270 272 274 275 272 265 257 256 255 248 241 238 238 236 234 234 235 235 235 234 233 233 232 232 232 231 231 232 233 234 235 236 236 237 238 238 238 239 240 241 241 242 242 242 242 241 240 239 238 238 239 239 240 240 241 243 244 246 248 248 247 245 242 241 241 241 243 244 241 242 250 257 260 261 261 263 265 270 274 276 278 280 281 281 282 284
267 267 268 271 273 274 274 270 263 259 259 254 244 238 238 237 235 233 233 234 234 234 233 232 231 231 231 231 230 230 231 232 233 234 234 235 236 236 237 237 238 238 239 240 241 241 242 240 239 240 239 238 239 239 240 241 242 244 246 247 248 248 247 246 244 243 244 243 244 244 243 242 246 251 255 257 259 261 264 267 271 276 278 278 278 278 278 280
266 267 267 269 271 271 272 273 269 264 262 258 250 242 239 239 236 233 232 232 233 233 233 232 231 230 230 230 230 230 230 231 232 233 233 234 234 235 236 237 237 238 238 238 238 239 239 237 238 239 239 238 238 239 241 241 242 245 247 248 249 249 249 249 249 247 248 248 247 246 244 243 244 246 249 252 255 257 260 263 266 272 275 275 275 276 277 279
266 266 267 267 269 270 272 273 272 268 264 261 258 250 242 240 238 234 231 231 232 233 232 232 231 230 229 229 230 230 230 230 231 232 232 232 233 233 234 235 237 237 237 238 237 238 238 237 238 239 238 237 237 239 241 242 244 247 248 248 249 251 251 251 251 249 248 248 248 247 246 244 245 246 248 250 252 253 255 258 262 267 270 272 273 274 276 277
266 266 266 267 268 270 271 272 273 271 267 263 261 256 246 241 240 236 231 230 231 231 232 231 231 229 228 228 229 229 229 229 230 230 231 232 232 232 232 233 234 235 236 237 237 237 237 238 239 239 238 238 239 241 242 243 245 246 247 248 251 253 252 251 251 250 248 249 250 250 249 247 246 247 248 250 252 253 254 257 260 263 266 268 270 272 274 277
266 266 267 267 269 271 272 272 273 272 270 265 262 258 251 246 242 237 233 230 229 229 230 231 231 229 228 227 228 229 229 228 229 229 229 230 231 232 232 232 232 233 234 235 235 236 236 237 238 239 239 240 242 243 244 243 244 245 247 249 250 251 250 250 250 250 249 249 250 249 249 249 249 249 249 251 253 255 255 257 259 260 263 267 269 271 274 277
267 267 268 268 270 272 273 274 273 272 270 267 263 260 255 250 244 238 234 230 228 228 229 230 230 229 228 227 227 228 228 228 228 228 228 228 229 231 233 232 232 232 233 233 234 235 236 237 238 239 239 241 242 243 242 242 243 244 245 246 247 248 249 250 251 252 251 249 248 249 250 251 253 253 253 253 254 255 256 257 259 260 262 265 269 272 274 277
270 270 270 270 271 273 274 274 273 271 270 267 263 259 256 253 249 242 235 230 228 227 227 228 228 228 228 226 226 226 226 227 227 226 226 226 227 228 231 231 232 232 232 232 233 234 235 235 236 238 239 240 240 240 240 241 242 243 244 246 248 250 252 253 254 253 252 251 250 251 250 251 255 256 255 255 255 256 257 258 259 260 261 264 267 270 273 274
272 272 271 272 272 273 274 274 272 269 268 266 263 260 257 255 253 246 237 230 228 226 226 226 226 227 227 226 225 225 225 226 226 226 225 225 225 226 228 229 230 231 232 232 232 233 234 234 235 237 238 238 237 238 238 240 242 244 246 249 251 253 254 254 253 252 251 251 251 251 249 249 251 254 255 256 257 257 258 259 260 261 262 264 266 268 271 272
273 272 271 271 272 272 273 272 270 267 266 265 264 262 259 256 254 249 240 231 227 226 225 224 225 226 226 227 226 225 225 225 226 226 226 225 225 226 228 229 229 230 231 231 233 234 235 235 235 237 238 237 237 239 240 242 245 247 248 250 251 253 253 253 253 253 253 253 253 252 250 247 248 251 253 255 257 258 259 260 261 262 264 266 267 268 270 271
272 271 270 269 269 270 270 269 268 266 264 263 263 261 258 255 254 250 242 233 226 225 225 224 223 224 225 226 227 226 225 224 225 226 226 225 226 226 228 230 230 229 229 229 231 233 234 234 234 235 237 238 239 242 243 245 247 247 247 248 249 250 251 252 253 254 254 254 253 252 250 247 247 250 252 254 256 257 258 259 261 263 265 267 268 270 271 271
270 269 268 266 266 267 267 266 265 263 261 260 260 259 256 254 253 250 244 235 227 224 224 224 223 223 225 226 227 227 225 223 223 224 225 224 225 226 227 229 231 231 229 228 230 232 233 233 233 235 237 237 238 239 239 240 243 244 244 245 246 247 248 249 250 251 252 252 251 251 250 248 248 250 252 254 256 257 258 260 263 264 266 268 269 270 271 271
267 267 266 264 263 263 264 263 262 260 258 257 256 256 255 252 251 249 244 237 230 225 224 224 223 223 224 225 227 227 225 223 222 223 224 224 224 225 226 228 230 231 230 229 230 231 233 234 234 236 237 237 237 237 237 238 240 242 242 243 244 245 246 248 250 251 251 251 252 252 251 251 251 251 253 254 256 258 260 262 263 265 267 268 270 270 271 272
265 264 263 262 260 260 260 259 258 257 255 253 252 252 252 250 249 249 245 240 233 226 223 224 224 222 223 225 226 227 225 223 222 222 222 223 224 225 226 227 228 230 231 231 231 231 232 233 235 236 238 238 238 238 239 240 241 242 243 243 244 245 246 248 250 251 251 252 254 254 254 254 255 255 256 257 258 260 262 263 264 266 268 269 269 270 271 272
261 261 261 259 257 256 256 255 254 253 251 250 249 248 249 248 248 247 245 241 235 228 222 224 224 222 222 224 226 227 226 224 223 222 221 222 223 224 226 227 227 229 231 232 232 233 232 232 233 235 237 238 238 239 240 241 242 244 244 245 246 247 248 249 250 252 253 254 255 257 258 258 259 259 259 260 261 262 262 263 263 264 265 267 268 268 269 270
259 258 258 257 255 253 252 252 251 250 248 247 245 245 246 246 245 245 244 241 237 229 223 223 224 222 221 222 225 227 226 225 224 222 221 222 222 223 225 227 227 229 230 232 233 234 233 232 232 234 235 237 238 240 241 242 243 244 245 246 246 247 249 250 251 253 254 256 257 259 260 261 261 261 261 260 260 261 261 261 261 262 264 265 266 267 268 269
256 255 254 254 253 251 249 248 247 247 246 244 242 242 242 243 243 243 243 241 237 231 223 222 224 223 221 221 223 225 226 225 225 223 222 221 222 221 223 226 227 228 230 232 233 234 234 233 233 233 233 235 237 240 241 243 244 245 245 246 247 248 249 250 252 253 255 256 257 258 259 260 259 259 260 261 261 261 261 261 261 262 264 264 265 266 268 268
253 252 251 251 250 249 247 245 244 243 243 241 240 239 239 240 240 241 241 240 237 231 225 222 224 223 221 220 221 223 224 224 225 224 223 222 222 222 222 224 226 227 229 231 233 234 234 234 234 234 234 234 236 238 240 241 242 243 245 247 248 250 251 252 253 254 255 256 257 258 258 258 259 260 261 262 262 262 261 262 262 263 263 263 264 265 267 268
Height
11003 11004 11004 11004 11005 11005 11006 11006 11006 11006 11007 11007 11007 11008 11008 11007 11007 11007 11007 11007 11006 11006 11005 11005 11004 11004 11003 11002 11001 11000 10999 10998 10997 10997 10996 10994 10993 10991 10990 10988 10987 10985 10983 10981 10979 10977 10975 10973 10971 10969 10967 10966 10964 10961 10959 10958 10958 10959 10961 10962 10962 10963 10963 10964 10965 10965 10966 10966 10967 10968 10968 10968 10968 10969 10969 10970 10971 10971 10971 10971 10971 10971 10971 10971 10972 10972 10973 10974
11001 11002 11002 11003 11003 11003 11004 11004 11005 11005 11005 11006 11006 11007 11007 11007 11006 11006 11006 11006 11006 11006 11005 11005 11005 11004 11003 11003 11002 11000 10999 10999 10998 10997 10997 10996 10994 10993 10992 10990 10988 10986 10985 10983 10981 10979 10977 10974 10972 10969 10967 10965 10964 10962 10960 10958 10957 10958 10959 10961 10962 10962 10963 10964 10965 10966 10966 10967 10967 10968 10968 10968 10968 10968 10969 10969 10970 10971 10971 10971 10971 10971 10971 10971 10971 10971 10972 10972
10998 10999 11000 11000 11001 11001 11002 11002 11003 11003 11004 11004 11005 11005 11005 11006 11006 11005 11005 11005 11005 11005 11005 11005 11005 11004 11004 11003 11002 11001 11000 10999 10999 10998 10997 10997 10996 10994 10993 10992 10990 10988 10986 10984 10982 10980 10978 10976 10973 10971 10968 10965 10963 10963 10961 10959 10958 10958 10958 10960 10962 10963 10963 10964 10965 10966 10967 10968 10968 10968 10968 10968 10968 10968 10969 10969 10970 10971 10971 10971 10971 10971 10971 10971 10971 10971 10971 10971
10996 10996 10997 10998 10998 10999 10999 11000 11000 11001 11002 11002 11003 11003 11004 11004 11004 11004 11004 11004 11004 11004 11004 11004 11005 11004 11004 11003 11003 11002 11001 11000 10999 10998 10998 10997 10996 10995 10994 10993 10992 10990 10988 10986 10984 10982 10980 10978 10975 10973 10970 10966 10964 10964 10962 10959 10959 10958 10958 10959 10961 10963 10964 10964 10965 10966 10968 10968 10969 10969 10968 10968 10968 10969 10969 10970 10970 10971 10971 10971 10971 10971 10971 10971 10971 10972 10972 10972
10993 10993 10994 10995 10995 10996 10997 10997 10998 10998 10999 11000 11001 11001 11002 11002 11003 11003 11003 11003 11003 11003 11003 11003 11004 11004 11004 11003 11003 11002 11001 11000 10999 10999 10998 10997 10997 10996 10995 10994 10993 10991 10990 10988 10986 10984 10982 10980 10978 10976 10973 10969 10967 10966 10964 10961 10960 10959 10958 10959 10961 10964 10965 10965 10966 10967 10969 10969 10969 10969 10969 10969 10969 10970 10970 10970 10970 10971 10971 10971 10971 10972 10972 10972 10972 10972 10972 10972
10989 10990 10991 10991 10992 10993 10994 10994 10995 10996 10996 10997 10998 10999 11000 11000 11001 11001 11001 11001 11002 11002 11002 11002 11003 11003 11003 11003 11003 11002 11001 11000 11000 10999 10998 10998 10997 10997 10996 10995 10994 10993 10991 10990 10988 10986 10984 10982 10980 10978 10976 10973 10971 10969 10966 10964 10962 10959 10958 10959 10961 10963 10965 10965 10966 10968 10969 10970 10970 10969 10969 10970 10970 10971 10971 10971 10971 10971 10971 10971 10972 10972 10973 10973 10973 10972 10972 10972
10985 10986 10987 10988 10989 10990 10990 10991 10992 10993 10993 10994 10995 10996 10997 10998 10999 10999 10999 11000 11000 11000 11001 11001 11001 11002 11002 11003 11002 11002 11001 11000 11000 10999 10998 10998 10997 10997 10996 10996 10995 10994 10993 10991 10990 10988 10986 10984 10982 10981 10978 10976 10973 10971 10969 10966 10963 10958 10958 10959 10962 10964 10965 10966 10968 10969 10970 10971 10970 10970 10970 10970 10971 10971 10971 10972 10972 10972 10972 10972 10973 10973 10973 10973 10973 10973 10972 10972
10981 10982 10983 10984 10985 10986 10987 10987 10988 10989 10990 10991 10992 10993 10994 10995 10996 10997 10997 10997 10998 10998 10999 10999 10999 11000 11001 11002 11002 11001 11000 11000 11000 10999 10998 10998 10997 10997 10996 10996 10995 10994 10993 10992 10991 10989 10988 10986 10984 10982 10980 10978 10976 10974 10971 10968 10963 10958 10959 10961 10963 10965 10966 10968 10969 10970 10971 10971 10971 10971 10971 10972 10972 10973 10973 10973 10972 10972 10973 10973 10973 10973 10973 10973 10973 10973 10973 10973
10977 10978 10979 10980 10981 10982 10983 10983 10984 10985 10986 10987 10988 10989 10991 10992 10993 10994 10995 10995 10995 10996 10997 10997 10997 10998 10999 11000 11000 11000 10999 10999 10999 10999 10998 10997 10997 10996 10996 10996 10996 10995 10994 10993 10992 10991 10989 10988 10986 10984 10982 10980 10979 10977 10974 10970 10963 10960 10962 10964 10965 10966 10967 10969 10970 10971 10971 10972 10972 10972 10973 10973 10974 10974 10974 10973 10973 10973 10973 10974 10974 10974 10973 10973 10973 10973 10973 10973
10972 10973 10974 10975 10976 10978 10979 10979 10980 10981 10982 10984 10985 10986 10987 10988 10990 10991 10992 10992 10993 10993 10994 10995 10996 10996 10996 10998 10999 10999 10998 10998 10998 10998 10997 10997 10997 10996 10996 10995 10996 10995 10994 10994 10993 10992 10990 10989 10987 10986 10984 10982 10981 10980 10977 10971 10966 10964 10966 10968 10968 10968 10969 10970 10971 10972 10972 10972 10973 10973 10974 10975 10975 10974 10974 10974 10974 10974 10974 10974 10974 10974 10973 10973 10973 10973 10972 10972
10967 10968 10969 10970 10972 10973 10974 10975 10976 10977 10978 10980 10981 10982 10984 10985 10986 10987 10989 10990 10990 10991 10991 10992 10993 10994 10994 10995 10997 10997 10997 10997 10997 10996 10996 10996 10996 10996 10995 10995 10995 10995 10995 10994 10993 10992 10991 10990 10989 10987 10986 10984 10983 10982 10979 10974 10970 10970 10971 10972 10971 10970 10970 10970 10971 10972 10973 10973 10974 10975 10976 10976 10976 10975 10975 10975 10974 10974 10974 10974 10974 10974 10974 10974 10973 10973 10972 10972
10961 10962 10963 10965 10966 10968 10969 10970 10971 10973 10974 10975 10977 10979 10980 10982 10983 10984 10985 10986 10987 10988 10988 10989 10990 10991 10991 10992 10995 10995 10995 10995 10994 10995 10995 10995 10995 10995 10994 10994 10994 10995 10995 10994 10994 10993 10992 10991 10990 10988 10987 10985 10984 10983 10981 10978 10974 10975 10976 10976 10974 10973 10972 10971 10972 10973 10973 10974 10975 10976 10976 10976 10976 10975 10975 10975 10975 10975 10974 10974 10974 10974 10974 10974 10974 10973 10973 10973
10954 10956 10957 10959 10960 10962 10963 10965 10966 10968 10969 10971 10973 10975 10976 10978 10980 10981 10982 10983 10984 10985 10985 10985 10985 10987 10988 10990 10992 10991 10992 10992 10992 10993 10994 10994 10994 10994 10994 10993 10993 10994 10994 10994 10994 10993 10992 10992 10990 10989 10988 10987 10986 10985 10984 10981 10977 10978 10980 10979 10977 10976 10974 10973 10973 10974 10974 10975 10975 10976 10976 10976 10976 10976 10975 10975 10975 10975 10974 10974 10974 10974 10974 10974 10974 10974 10974 10974
10947 10949 10950 10952 10954 10956 10957 10958 10960 10962 10964 10966 10969 10971 10972 10974 10976 10978 10979 10979 10980 10981 10981 10981 10981 10983 10985 10987 10988 10988 10988 10990 10990 10992 10992 10992 10993 10993 10993 10992 10992 10993 10993 10993 10993 10993 10992 10992 10991 10990 10989 10988 10987 10986 10986 10983 10979 10980 10982 10981 10980 10978 10977 10976 10976 10975 10975 10975 10976 10976 10976 10976 10976 10976 10976 10975 10975 10975 10975 10975 10975 10974 10974 10974 10974 10974 10974 10974
10940 10942 10943 10945 10947 10949 10950 10951 10953 10955 10958 10961 10964 10966 10968 10970 10972 10973 10974 10976 10977 10977 10976 10976 10978 10979 10980 10983 10985 10984 10985 10987 10989 10989 10989 10989 10990 10992 10992 10991 10990 10991 10992 10992 10992 10992 10992 10992 10991 10991 10990 10989 10988 10987 10987 10985 10982 10981 10983 10983 10982 10980 10980 10979 10978 10977 10977 10977 10977 10977 10976 10976 10976 10976 10976 10975 10975 10975 10975 10975 10975 10975 10974 10974 10974 10974 10974 10974
10932 10934 10935 10937 10939 10941 10943 10944 10945 10948 10952 10955 10958 10961 10963 10965 10967 10968 10969 10971 10971 10971 10971 10971 10973 10974 10975 10979 10980 10980 10982 10985 10986 10986 10986 10986 10988 10990 10990 10989 10989 10990 10991 10991 10991 10991 10991 10991 10991 10991 10990 10989 10989 10988 10987 10986 10984 10983 10983 10984 10983 10983 10982 10980 10979 10979 10978 10978 10977 10977 10977 10977 10977 10977 10977 10976 10975 10975 10975 10975 10975 10975 10975 10975 10974 10974 10974 10975
10923 10925 10927 10929 10931 10933 10935 10936 10937 10941 10945 10949 10952 10955 10958 10959 10960 10962 10963 10964 10964 10965 10966 10967 10968 10969 10970 10974 10976 10976 10979 10982 10982 10982 10983 10983 10985 10988 10988 10988 10988 10988 10989 10990 10990 10990 10990 10990 10991 10990 10990 10989 10989 10989 10988 10987 10985 10984 10984 10984 10984 10984 10983 10982 10981 10981 10980 10979 10979 10978 10978 10978 10978 10978 10978 10977 10977 10976 10976 10976 10976 10976 10976 10975 10974 10974 10974 10974
10915 10916 10918 10920 10922 10925 10926 10927 10929 10932 10938 10943 10944 10948 10951 10951 10952 10956 10957 10956 10958 10961 10962 10963 10964 10964 10966 10969 10971 10971 10973 10977 10978 10978 10979 10980 10982 10984 10985 10986 10987 10987 10987 10988 10988 10989 10988 10989 10989 10989 10989 10989 10989 10989 10988 10987 10986 10984 10984 10984 10985 10984 10984 10984 10983 10983 10982 10981 10981 10981 10980 10979 10979 10979 10979 10979 10978 10978 10978 10978 10977 10977 10977 10976 10975 10975 10975 10975
10905 10907 10909 10911 10913 10916 10918 10919 10920 10924 10929 10935 10937 10940 10943 10943 10945 10950 10950 10950 10953 10956 10957 10959 10960 10960 10962 10964 10965 10967 10969 10972 10974 10973 10974 10976 10978 10980 10982 10983 10985 10985 10985 10986 10986 10987 10987 10987 10988 10988 10988 10988 10988 10988 10988 10987 10986 10985 10984 10984 10984 10984 10984 10984 10984 10984 10984 10983 10982 10982 10981 10980 10980 10979 10980 10980 10979 10979 10979 10979 10978 10978 10977 10977 10976 10976 10976 10976
10895 10897 10899 10901 10904 10906 10909 10909 10911 10914 10920 10926 10930 10932 10934 10935 10939 10942 10942 10943 10948 10951 10952 10953 10955 10956 10957 10959 10962 10965 10965 10967 10969 10969 10969 10971 10974 10977 10978 10980 10982 10983 10982 10983 10984 10986 10985 10985 10986 10987 10987 10987 10988 10987 10987 10987 10986 10985 10985 10985 10984 10984 10983 10984 10984 10984 10984 10983 10983 10982 10981 10981 10980 10980 10980 10980 10980 10979 10979 10979 10979 10979 10978 10977 10977 10977 10977 10977
10885 10886 10888 10890 10893 10896 10899 10900 10901 10905 10909 10916 10921 10923 10925 10928 10932 10934 10934 10936 10941 10945 10945 10946 10949 10950 10952 10954 10957 10960 10961 10962 10965 10965 10966 10967 10970 10973 10975 10977 10979 10979 10978 10979 10982 10984 10983 10982 10983 10985 10985 10986 10986 10986 10986 10987 10986 10985 10985 10985 10984 10983 10983 10982 10983 10984 10983 10983 10982 10982 10981 10980 10980 10981 10981 10981 10981 10980 10979 10979 10979 10979 10979 10978 10978 10978 10978 10977
10874 10875 10877 10879 10883 10886 10889 10890 10891 10895 10899 10905 10911 10914 10918 10921 10924 10926 10927 10927 10933 10939 10938 10939 10942 10943 10945 10949 10951 10954 10957 10957 10958 10960 10962 10963 10966 10969 10970 10972 10974 10974 10974 10977 10980 10981 10979 10978 10980 10983 10983 10983 10984 10985 10985 10986 10986 10985 10985 10985 10984 10983 10983 10982 10982 10982 10983 10983 10982 10981 10981 10980 10980 10981 10981 10981 10981 10980 10979 10979 10979 10979 10979 10978 10978 10978 10978 10977
10863 10864 10865 10867 10871 10875 10878 10880 10881 10885 10889 10894 10899 10903 10910 10914 10916 10918 10920 10919 10923 10931 10931 10931 10936 10936 10938 10943 10944 10948 10950 10949 10951 10955 10958 10960 10961 10963 10965 10968 10969 10969 10971 10974 10976 10977 10975 10974 10977 10980 10981 10981 10982 10983 10984 10984 10984 10984 10984 10984 10984 10983 10983 10982 10982 10982 10982 10983 10982 10982 10981 10981 10981 10981 10981 10980 10980 10980 10979 10979 10979 10979 10979 10979 10978 10978 10978 10977
10851 10852 10854 10855 10859 10863 10867 10869 10871 10874 10878 10883 10887 10893 10900 10905 10907 10909 10912 10912 10912 10920 10924 10925 10928 10927 10928 10934 10938 10942 10943 10942 10945 10949 10953 10955 10955 10957 10961 10963 10963 10965 10969 10969 10971 10973 10970 10971 10975 10978 10978 10978 10979 10981 10981 10982 10982 10983 10983 10983 10983 10983 10983 10982 10982 10982 10981 10982 10982 10982 10982 10982 10982 10982 10981 10979 10979 10979 10979 10978 10978 10978 10979 10979 10978 10978 10978 10977
10840 10841 10842 10844 10847 10850 10855 10858 10861 10864 10868 10871 10874 10882 10889 10894 10898 10900 10903 10905 10901 10907 10918 10919 10917 10916 10920 10929 10936 10936 10934 10936 10939 10941 10946 10949 10949 10952 10955 10957 10959 10962 10964 10964 10967 10968 10966 10968 10973 10975 10975 10976 10977 10978 10979 10979 10980 10980 10980 10981 10982 10982 10982 10982 10981 10981 10981 10981 10982 10982 10982 10982 10982 10982 10981 10980 10980 10979 10978 10978 10978 10978 10978 10978 10978 10978 10977 10977
10831 10831 10831 10833 10835 10837 10843 10846 10849 10853 10856 10859 10863 10870 10877 10882 10888 10891 10894 10898 10892 10894 10908 10911 10906 10907 10914 10924 10927 10925 10927 10931 10932 10933 10939 10941 10942 10946 10949 10952 10956 10957 10958 10959 10963 10964 10962 10965 10970 10971 10972 10972 10974 10975 10975 10976 10977 10977 10977 10979 10980 10980 10981 10981 10981 10981 10980 10980 10981 10980 10980 10980 10980 10980 10980 10980 10980 10980 10978 10977 10977 10977 10977 10977 10977 10977 10976 10976
10822 10822 10822 10822 10824 10825 10830 10834 10839 10842 10843 10848 10853 10858 10864 10870 10877 10881 10885 10890 10885 10882 10894 10900 10897 10898 10906 10914 10916 10918 10923 10923 10923 10927 10931 10933 10936 10939 10943 10947 10950 10950 10952 10955 10960 10960 10957 10961 10966 10967 10968 10969 10970 10971 10971 10973 10974 10974 10975 10976 10977 10978 10979 10979 10980 10980 10979 10979 10979 10978 10978 10978 10977 10978 10978 10979 10979 10979 10978 10977 10976 10975 10976 10976 10976 10976 10975 10974
10812 10813 10813 10812 10814 10815 10817 10823 10829 10831 10831 10836 10842 10846 10852 10857 10865 10871 10876 10881 10876 10870 10879 10887 10888 10888 10895 10905 10909 10911 10914 10912 10915 10921 10922 10924 10929 10933 10938 10942 10943 10943 10945 10951 10956 10954 10951 10956 10961 10961 10963 10965 10965 10965 10966 10970 10970 10970 10972 10974 10974 10975 10976 10977 10978 10978 10978 10978 10977 10977 10976 10975 10975 10975 10975 10976 10977 10976 10976 10976 10976 10975 10974 10974 10974 10974 10974 10973
10803 10804 10803 10803 10805 10805 10805 10811 10819 10821 10819 10823 10830 10835 10839 10845 10852 10858 10866 10870 10863 10859 10866 10873 10877 10879 10885 10895 10900 10902 10904 10905 10909 10912 10913 10918 10924 10928 10932 10935 10935 10936 10939 10947 10950 10946 10946 10952 10954 10956 10960 10961 10959 10959 10964 10967 10965 10966 10969 10971 10971 10972 10973 10974 10975 10976 10977 10977 10975 10975 10975 10974 10974 10973 10973 10973 10974 10973 10974 10974 10974 10974 10973 10973 10973 10973 10973 10972
10794 10795 10795 10794 10796 10796 10796 10801 10809 10811 10809 10812 10818 10823 10828 10833 10839 10846 10854 10854 10848 10849 10854 10858 10864 10870 10876 10886 10890 10892 10895 10897 10900 10903 10906 10911 10916 10920 10924 10926 10928 10930 10935 10942 10944 10941 10942 10946 10949 10953 10958 10956 10953 10955 10961 10962 10960 10962 10966 10968 10968 10970 10970 10971 10972 10973 10975 10975 10973 10973 10974 10974 10974 10973 10972 10971 10971 10970 10970 10970 10971 10972 10971 10971 10972 10972 10971 10971
10785 10786 10786 10785 10786 10787 10787 10793 10799 10800 10800 10804 10807 10811 10816 10820 10827 10835 10836 10834 10834 10839 10841 10844 10853 10861 10868 10876 10880 10882 10885 10887 10890 10895 10899 10903 10908 10913 10917 10920 10923 10926 10931 10938 10940 10937 10938 10942 10946 10951 10952 10950 10949 10952 10957 10958 10955 10958 10963 10963 10965 10966 10967 10969 10970 10971 10973 10971 10969 10971 10973 10974 10973 10972 10971 10970 10969 10968 10967 10966 10966 10967 10968 10969 10970 10970 10970 10970
10777 10777 10777 10776 10776 10777 10780 10787 10789 10788 10792 10795 10796 10800 10804 10809 10817 10819 10815 10817 10824 10826 10828 10834 10843 10851 10861 10869 10872 10873 10875 10878 10882 10887 10891 10895 10900 10906 10910 10913 10916 10920 10926 10933 10934 10931 10934 10938 10941 10944 10945 10945 10945 10948 10953 10953 10952 10954 10957 10958 10961 10963 10964 10966 10967 10968 10969 10967 10966 10969 10971 10972 10971 10970 10970 10969 10969 10968 10966 10965 10964 10963 10963 10964 10966 10968 10968 10968
10768 10768 10768 10768 10767 10768 10774 10780 10780 10778 10781 10785 10788 10790 10793 10802 10805 10799 10798 10806 10809 10810 10816 10826 10834 10842 10852 10860 10861 10861 10864 10870 10874 10878 10882 10885 10891 10897 10900 10904 10908 10912 10918 10922 10923 10924 10927 10930 10933 10938 10940 10940 10942 10945 10947 10948 10947 10948 10950 10952 10955 10958 10960 10962 10964 10965 10966 10964 10964 10967 10970 10972 10969 10967 10967 10967 10967 10967 10966 10965 10964 10962 10961 10960 10962 10963 10964 10964
10760 10760 10760 10760 10759 10761 10766 10771 10771 10768 10768 10773 10779 10780 10784 10792 10789 10781 10786 10792 10792 10798 10808 10817 10826 10834 10842 10847 10848 10851 10855 10859 10863 10868 10872 10876 10882 10889 10893 10896 10901 10905 10909 10912 10915 10918 10920 10924 10928 10933 10935 10935 10937 10939 10940 10940 10940 10940 10943 10946 10950 10953 10956 10958 10960 10961 10961 10961 10962 10965 10969 10969 10966 10964 10965 10965 10965 10965 10964 10964 10963 10962 10960 10959 10959 10960 10959 10959
10751 10752 10751 10751 10752 10754 10756 10759 10761 10759 10758 10761 10768 10773 10777 10777 10771 10770 10775 10777 10780 10791 10801 10810 10819 10825 10830 10834 10838 10842 10844 10847 10851 10857 10862 10867 10874 10881 10885 10889 10893 10898 10901 10906 10911 10912 10915 10920 10923 10924 10926 10928 10929 10930 10930 10931 10933 10935 10936 10941 10947 10950 10950 10952 10955 10956 10957 10958 10961 10963 10966 10966 10964 10962 10962 10962 10962 10962 10962 10962 10960 10959 10958 10957 10956 10956 10956 10955
10742 10742 10742 10743 10745 10746 10746 10747 10749 10751 10749 10750 10759 10767 10765 10760 10757 10759 10763 10764 10771 10782 10791 10800 10808 10814 10818 10822 10827 10831 10832 10836 10841 10846 10853 10859 10865 10871 10876 10879 10884 10889 10894 10899 10903 10905 10909 10915 10913 10914 10919 10922 10923 10922 10921 10924 10929 10929 10930 10938 10943 10942 10943 10946 10949 10951 10953 10956 10958 10960 10962 10962 10962 10961 10960 10959 10960 10960 10960 10959 10958 10957 10955 10954 10953 10952 10952 10952
10732 10733 10734 10735 10735 10735 10737 10736 10737 10741 10742 10743 10752 10756 10752 10749 10746 10746 10750 10756 10763 10771 10780 10789 10795 10802 10807 10811 10816 10820 10822 10828 10833 10839 10846 10851 10856 10863 10868 10872 10876 10881 10886 10890 10894 10897 10901 10905 10903 10906 10913 10915 10915 10913 10913 10919 10924 10923 10927 10934 10934 10933 10937 10941 10944 10947 10950 10952 10954 10956 10957 10958 10958 10958 10957 10957 10958 10958 10957 10957 10956 10955 10952 10950 10949 10949 10949 10949
10722 10723 10725 10726 10726 10726 10727 10727 10727 10731 10734 10738 10742 10742 10741 10737 10731 10734 10743 10749 10754 10762 10771 10778 10784 10791 10796 10801 10805 10808 10813 10819 10824 10832 10837 10840 10848 10854 10859 10864 10867 10873 10878 10880 10885 10889 10892 10895 10895 10898 10904 10905 10905 10904 10907 10915 10919 10919 10923 10925 10925 10927 10933 10937 10938 10942 10945 10946 10948 10950 10952 10954 10955 10955 10955 10955 10954 10955 10955 10955 10954 10953 10949 10946 10946 10946 10946 10946
10712 10713 10715 10716 10717 10717 10717 10717 10718 10721 10726 10730 10730 10728 10728 10724 10720 10726 10735 10740 10746 10753 10761 10766 10771 10778 10785 10790 10793 10796 10804 10810 10815 10822 10827 10832 10840 10844 10848 10854 10858 10864 10868 10871 10877 10882 10884 10887 10888 10891 10895 10895 10895 10898 10906 10913 10914 10914 10914 10915 10919 10923 10927 10930 10932 10935 10939 10941 10943 10945 10948 10950 10950 10950 10951 10950 10950 10951 10952 10952 10951 10950 10947 10944 10943 10943 10943 10943
10703 10703 10704 10706 10708 10708 10706 10708 10710 10711 10715 10719 10718 10716 10716 10714 10713 10719 10725 10731 10738 10744 10750 10754 10758 10766 10773 10778 10781 10786 10794 10799 10804 10812 10817 10825 10832 10833 10837 10844 10849 10854 10857 10861 10868 10871 10874 10879 10881 10883 10885 10886 10889 10897 10906 10908 10906 10906 10906 10908 10914 10917 10920 10923 10925 10928 10933 10935 10937 10939 10942 10944 10944 10945 10946 10946 10946 10947 10948 10948 10947 10946 10944 10941 10940 10940 10940 10940
10693 10694 10694 10695 10698 10698 10697 10698 10700 10701 10704 10707 10707 10706 10706 10706 10706 10709 10715 10723 10728 10733 10738 10742 10748 10755 10761 10766 10770 10775 10781 10787 10791 10799 10808 10815 10822 10825 10829 10835 10840 10843 10846 10852 10859 10863 10867 10873 10873 10873 10875 10881 10888 10895 10899 10897 10896 10898 10898 10900 10905 10909 10912 10915 10918 10923 10926 10927 10930 10933 10937 10939 10938 10940 10941 10941 10942 10942 10943 10944 10942 10941 10940 10938 10937 10937 10937 10936
10682 10683 10683 10684 10687 10688 10687 10688 10689 10690 10694 10695 10695 10695 10696 10697 10697 10698 10705 10714 10718 10722 10727 10732 10738 10744 10748 10753 10756 10760 10767 10772 10777 10787 10797 10804 10811 10815 10818 10823 10828 10831 10836 10845 10852 10855 10859 10862 10862 10862 10869 10878 10883 10886 10887 10886 10887 10889 10889 10894 10899 10903 10908 10911 10913 10917 10918 10920 10925 10928 10933 10936 10934 10933 10934 10935 10936 10937 10939 10939 10937 10936 10936 10935 10935 10934 10934 10933
10669 10671 10673 10675 10676 10677 10677 10678 10678 10680 10682 10682 10684 10687 10688 10689 10688 10689 10696 10704 10709 10712 10716 10721 10727 10731 10736 10739 10742 10745 10751 10758 10766 10779 10788 10794 10802 10806 10805 10809 10816 10821 10829 10839 10843 10844 10846 10850 10855 10857 10863 10871 10872 10873 10877 10878 10878 10882 10886 10892 10896 10899 10904 10905 10906 10908 10909 10913 10919 10923 10928 10932 10930 10927 10928 10929 10931 10932 10933 10933 10931 10931 10932 10932 10932 10931 10930 10929
10657 10657 10662 10665 10663 10664 10667 10666 10667 10670 10671 10672 10675 10678 10680 10681 10679 10679 10684 10692 10699 10701 10704 10710 10715 10719 10723 10726 10728 10731 10739 10752 10764 10772 10779 10787 10795 10798 10798 10801 10806 10813 10823 10833 10836 10835 10836 10844 10851 10850 10852 10859 10862 10865 10872 10874 10874 10879 10885 10888 10891 10893 10895 10897 10898 10900 10902 10908 10913 10917 10922 10926 10924 10922 10923 10925 10926 10927 10927 10927 10926 10927 10927 10928 10929 10928 10927 10925
10644 10643 10649 10654 10653 10652 10655 10655 10656 10659 10660 10663 10666 10667 10669 10670 10669 10668 10673 10681 10688 10691 10694 10699 10703 10706 10711 10714 10717 10723 10735 10749 10757 10760 10769 10780 10788 10791 10792 10792 10796 10805 10817 10825 10825 10823 10826 10835 10841 10840 10843 10853 10860 10867 10874 10875 10871 10874 10878 10881 10883 10885 10886 10888 10889 10891 10896 10902 10906 10909 10914 10917 10918 10918 10919 10920 10920 10921 10921 10921 10922 10922 10923 10923 10924 10924 10922 10920
10631 10630 10633 10641 10643 10640 10642 10644 10646 10648 10650 10652 10655 10656 10658 10660 10659 10659 10664 10671 10678 10682 10684 10687 10691 10696 10701 10705 10709 10715 10726 10737 10742 10747 10759 10770 10776 10780 10783 10786 10790 10799 10809 10813 10812 10812 10817 10825 10831 10833 10838 10849 10859 10864 10866 10864 10859 10862 10869 10872 10874 10876 10877 10878 10879 10883 10890 10893 10895 10900 10904 10908 10912 10914 10914 10914 10914 10914 10915 10917 10918 10917 10918 10919 10920 10920 10917 10914
10616 10615 10616 10624 10630 10629 10629 10632 10634 10635 10638 10642 10644 10645 10648 10649 10649 10650 10655 10662 10668 10672 10675 10676 10680 10688 10693 10696 10699 10705 10714 10724 10732 10740 10751 10759 10765 10769 10775 10780 10784 10790 10798 10801 10802 10804 10809 10818 10825 10830 10836 10845 10852 10853 10852 10850 10850 10854 10860 10863 10864 10866 10868 10869 10872 10878 10883 10883 10885 10892 10896 10901 10907 10909 10909 10909 10909 10910 10912 10913 10913 10912 10913 10914 10914 10913 10910 10907
10600 10600 10599 10604 10613 10617 10616 10618 10622 10623 10626 10630 10633 10635 10636 10638 10640 10643 10648 10653 10656 10660 10666 10668 10671 10680 10685 10686 10688 10694 10705 10716 10723 10731 10741 10749 10755 10762 10768 10773 10776 10781 10787 10790 10792 10796 10803 10814 10821 10825 10831 10838 10842 10843 10842 10842 10844 10847 10851 10854 10856 10858 10861 10864 10866 10871 10874 10875 10879 10884 10889 10896 10901 10903 10904 10904 10904 10906 10907 10908 10908 10907 10907 10907 10907 10907 10904 10901
10582 10583 10582 10584 10594 10601 10602 10604 10608 10610 10612 10617 10622 10623 10625 10629 10633 10635 10638 10642 10644 10649 10657 10659 10662 10671 10676 10678 10681 10689 10700 10708 10712 10721 10731 10738 10747 10756 10761 10764 10769 10773 10777 10781 10785 10789 10797 10808 10814 10818 10825 10830 10833 10834 10834 10835 10837 10840 10843 10847 10849 10850 10853 10857 10859 10861 10864 10869 10874 10876 10881 10891 10895 10896 10898 10898 10899 10901 10902 10903 10903 10901 10901 10901 10900 10899 10897 10894
10563 10564 10564 10567 10574 10582 10586 10590 10594 10596 10598 10604 10610 10613 10616 10620 10623 10624 10628 10632 10634 10640 10648 10652 10654 10661 10666 10670 10676 10684 10692 10698 10704 10715 10725 10731 10740 10748 10751 10756 10763 10766 10769 10774 10777 10781 10791 10802 10807 10811 10817 10821 10824 10826 10827 10828 10830 10833 10836 10839 10841 10842 10846 10849 10852 10855 10857 10862 10868 10870 10875 10884 10888 10887 10889 10891 10892 10894 10896 10897 10896 10895 10895 10896 10893 10891 10890 10888
10543 10545 10546 10550 10555 10562 10569 10575 10579 10582 10584 10591 10599 10603 10605 10608 10612 10616 10620 10622 10624 10630 10639 10645 10646 10650 10656 10662 10668 10675 10682 10690 10699 10709 10718 10722 10729 10737 10742 10748 10756 10761 10764 10766 10769 10775 10785 10794 10799 10803 10808 10814 10817 10818 10820 10822 10823 10823 10826 10829 10831 10835 10839 10842 10845 10849 10851 10856 10861 10864 10869 10876 10878 10877 10880 10882 10885 10888 10889 10890 10890 10889 10890 10890 10887 10884 10882 10880
10522 10525 10528 10532 10537 10542 10550 10558 10564 10568 10571 10578 10586 10590 10594 10598 10602 10607 10609 10609 10614 10622 10630 10635 10636 10639 10647 10655 10661 10667 10674 10684 10694 10702 10709 10715 10720 10728 10734 10739 10747 10753 10756 10758 10762 10769 10777 10785 10792 10797 10802 10808 10810 10810 10811 10811 10810 10813 10819 10823 10826 10829 10833 10835 10838 10842 10845 10849 10854 10858 10863 10868 10868 10869 10873 10875 10877 10880 10881 10882 10883 10883 10884 10882 10880 10877 10875 10873